Weather reports worldwide

Advertisment
Westdorpe aws, Netherlands (6319): temperature & dewpoint: 27.06.2020 21:00:00 - 03.07.2020 21:00:00 (CEST)Westdorpe aws, Netherlands (6319): temperature 5cm: 27.06.2020 21:00:00 - 03.07.2020 21:00:00 (CEST)Westdorpe aws, Netherlands (6319): wind speed & gusts: 27.06.2020 21:00:00 - 03.07.2020 21:00:00 (CEST)Westdorpe aws, Netherlands (6319): wind direction: 27.06.2020 21:00:00 - 03.07.2020 21:00:00 (CEST)Westdorpe aws, Netherlands (6319): reduced air pressure: 27.06.2020 21:00:00 - 03.07.2020 21:00:00 (CEST)Westdorpe aws, Netherlands (6319): visibility: 27.06.2020 21:00:00 - 03.07.2020 21:00:00 (CEST)Westdorpe aws, Netherlands (6319): precipitation: 27.06.2020 21:00:00 - 03.07.2020 21:00:00 (CEST)
Date & Time tt [°C] td [°C] tt 5cm [°C] ff [km/h] ff [kn] fx [km/h] fx [kn] dd ppp [hPa] vv [km] rr [mm]
03.07.2020 21:00:00 17,9 10,6 17,6 22 12 47 25 WSW 1017,4 67 0,0
03.07.2020 20:00:00 19,2 9,6 19,2 29 16 47 25 WSW 1017,4 75 0,0
03.07.2020 19:00:00 19,7 9,8 19,8 29 16 43 23 WSW 1017,1 75 0,0
03.07.2020 18:00:00 20,4 10,2 21,4 32 18 50 27 SW 1017,2 69 0,0
03.07.2020 17:00:00 21,2 11,3 22,1 29 16 43 23 SW 1017,2 75 0,0
03.07.2020 16:00:00 21,2 10,5 21,3 32 18 47 25 WSW 1017,5 75 0,0
03.07.2020 15:00:00 21,6 11,9 21,8 25 14 40 21 SW 1017,4 75 0,0
03.07.2020 14:00:00 21,0 12,1 22,0 29 16 43 23 W 1017,6 75 0,0
03.07.2020 13:00:00 19,5 13,6 20,3 22 12 40 21 WSW 1017,8 71 0,0
03.07.2020 12:00:00 20,6 14,3 22,1 22 12 32 18 SW 1017,4 59 0,0
03.07.2020 11:00:00 18,8 14,5 18,7 14 8 32 18 SW 1017,4 31 0,0
03.07.2020 10:00:00 17,3 14,0 18,1 22 12 32 18 SW 1017,2 25 0,0
03.07.2020 09:00:00 16,4 13,8 16,6 22 12 29 16 SW 1017,1 18 0,0
03.07.2020 08:00:00 15,6 13,7 15,3 14 8 22 12 SW 1016,9 15 0,0
03.07.2020 07:00:00 14,4 13,3 14,4 14 8 25 14 SW 1016,8 10 0,0
03.07.2020 06:00:00 14,1 12,9 14,0 14 8 25 14 SW 1016,5 12 0,0
03.07.2020 05:00:00 14,0 12,7 13,9 18 10 25 14 SW 1016,1 11 0,0
03.07.2020 04:00:00 13,9 12,7 13,7 14 8 25 14 SW 1015,9 12 0,0
03.07.2020 03:00:00 13,5 12,1 13,2 14 8 22 12 SW 1015,9 16 0,0
03.07.2020 02:00:00 14,0 12,1 13,4 11 6 25 14 WSW 1015,9 23 0,0
03.07.2020 01:00:00 14,1 11,9 13,5 18 10 25 14 WSW 1015,4 27 0,0
03.07.2020 00:00:00 14,6 11,5 13,6 18 10 29 16 SW 1015,1 35 0,0
02.07.2020 23:00:00 15,4 11,3 14,6 18 10 25 14 WSW 1014,9 43 0,0
02.07.2020 22:00:00 15,7 11,6 15,1 11 6 25 14 WSW 1014,3 65 0,0
02.07.2020 21:00:00 17,7 11,4 17,5 22 12 32 18 WSW 1013,8 74 0,0
02.07.2020 20:00:00 18,9 10,9 19,3 22 12 36 19 W 1013,4 64 0,0
02.07.2020 19:00:00 19,3 13,6 20,1 18 10 40 21 W 1012,8 42 0,0
02.07.2020 18:00:00 19,0 11,8 19,4 25 14 40 21 W 1012,4 75 0,0
02.07.2020 17:00:00 19,5 12,3 20,4 22 12 43 23 W 1012,3 75 0,0
02.07.2020 16:00:00 20,2 11,7 20,6 22 12 32 18 WSW 1012,0 63 0,0
02.07.2020 15:00:00 18,2 13,1 18,8 14 8 29 16 W 1012,1 40 0,0
02.07.2020 14:00:00 17,4 13,9 17,6 14 8 29 16 W 1012,0 30 0,1
02.07.2020 13:00:00 17,2 13,0 17,3 14 8 32 18 W 1011,7 39 0,0
02.07.2020 12:00:00 16,4 12,2 16,9 25 14 36 19 W 1011,3 47 0,0
02.07.2020 11:00:00 17,2 13,4 17,5 18 10 29 16 WSW 1010,9 45 0,0
02.07.2020 10:00:00 17,1 13,1 17,8 18 10 32 18 SW 1010,6 45 0,0
02.07.2020 09:00:00 17,4 13,9 17,6 22 12 29 16 SW 1010,1 46 0,0
02.07.2020 08:00:00 16,3 14,0 16,3 14 8 29 16 SW 1009,9 54 0,0
02.07.2020 07:00:00 15,7 13,6 15,5 18 10 29 16 SW 1009,6 39 0,0
02.07.2020 06:00:00 15,3 13,2 15,1 18 10 29 16 SW 1009,5 41 0,0
02.07.2020 05:00:00 15,1 12,7 14,7 14 8 25 14 SW 1009,4 43 0,0
02.07.2020 04:00:00 14,5 12,4 13,9 14 8 22 12 SW 1009,1 45 0,0
02.07.2020 03:00:00 14,0 11,9 13,2 14 8 22 12 SW 1009,2 44 0,0
02.07.2020 02:00:00 14,5 12,0 13,8 14 8 25 14 WSW 1009,1 49 0,0
02.07.2020 01:00:00 14,9 12,0 14,4 18 10 25 14 SW 1009,1 51 0,0
02.07.2020 00:00:00 15,7 11,9 14,8 18 10 29 16 WSW 1009,1 60 0,0
01.07.2020 23:00:00 16,0 12,0 15,3 18 10 29 16 WSW 1008,8 75 0,0
01.07.2020 22:00:00 17,0 12,1 16,4 14 8 32 18 WSW 1008,3 75 0,0
01.07.2020 21:00:00 18,4 12,2 18,0 22 12 36 19 WSW 1007,8 72 0,0
01.07.2020 20:00:00 19,1 12,7 19,0 22 12 36 19 WSW 1007,7 75 0,0
01.07.2020 19:00:00 20,1 13,4 20,2 25 14 40 21 WSW 1007,7 75 0,0
01.07.2020 18:00:00 19,7 13,0 20,2 29 16 43 23 WSW 1007,7 65 0,0
01.07.2020 17:00:00 20,1 13,2 20,8 29 16 47 25 WSW 1007,6 60 0,0
01.07.2020 16:00:00 20,4 14,0 21,1 29 16 43 23 WSW 1007,2 75 0,0
01.07.2020 15:00:00 19,9 14,6 20,2 25 14 43 23 SW 1007,1 65 0,0
01.07.2020 14:00:00 19,4 14,8 20,4 25 14 40 21 SW 1006,9 75 0,0
01.07.2020 13:00:00 18,7 15,9 19,5 25 14 36 19 SW 1006,6 60 0,0
01.07.2020 12:00:00 16,9 15,7 17,2 22 12 32 18 WSW 1006,6 27 2,1
01.07.2020 11:00:00 16,2 15,7 16,8 14 8 29 16 W 1006,5 2,2 0,6
01.07.2020 10:00:00 16,3 15,7 16,6 14 8 25 14 W 1006,3 2,5 1,4
01.07.2020 09:00:00 16,5 16,2 16,8 14 8 25 14 W 1006,0 4,7 2,1
01.07.2020 08:00:00 16,9 16,4 16,9 18 10 22 12 W 1005,8 3,2 4,5
01.07.2020 07:00:00 17,2 16,8 17,1 11 6 25 14 SW 1005,6 3,5 2,4
01.07.2020 06:00:00 17,3 16,9 17,1 11 6 25 14 WSW 1005,8 3,6 4,5
01.07.2020 05:00:00 17,3 16,9 17,2 11 6 25 14 SW 1006,2 7 2,6
01.07.2020 04:00:00 17,5 16,9 17,4 18 10 29 16 SW 1006,4 18 0,2
01.07.2020 03:00:00 17,7 16,8 17,5 18 10 40 21 SW 1006,7 33 0,0
01.07.2020 02:00:00 17,8 16,9 17,6 18 10 29 16 SW 1007,0 46 0,0
01.07.2020 01:00:00 17,8 16,8 17,6 18 10 32 18 SW 1007,6 26 0,0
01.07.2020 00:00:00 17,8 16,8 17,6 22 12 32 18 SW 1007,7 47 0,0
30.06.2020 23:00:00 17,8 16,9 17,6 14 8 29 16 SW 1007,8 33 0,0
30.06.2020 22:00:00 17,8 16,7 17,5 18 10 25 14 SW 1007,8 47 0,0
30.06.2020 21:00:00 17,5 16,8 17,5 14 8 29 16 SW 1007,8 55 0,2
30.06.2020 20:00:00 17,2 16,7 17,2 18 10 29 16 SW 1008,0 13 1,7
30.06.2020 19:00:00 17,0 16,4 17,1 18 10 25 14 SW 1008,2 8 2,4
30.06.2020 18:00:00 17,4 16,4 17,6 14 8 25 14 SW 1008,6 7 0,0
30.06.2020 17:00:00 17,1 16,3 17,4 11 6 29 16 SSW 1008,7 5 0,6
30.06.2020 16:00:00 16,6 15,7 16,8 14 8 32 18 SW 1009,2 7 0,4
30.06.2020 15:00:00 16,9 14,1 17,2 22 12 32 18 SW 1009,3 14 0,1
30.06.2020 14:00:00 18,5 12,3 18,9 18 10 40 21 SW 1009,4 75 0,0
30.06.2020 13:00:00 20,1 11,7 20,8 25 14 40 21 SW 1009,6 73 0,0
30.06.2020 12:00:00 18,5 11,8 18,9 25 14 40 21 SW 1009,8 73 0,0
30.06.2020 11:00:00 17,1 11,9 18,1 22 12 40 21 SW 1009,8 49 0,0
30.06.2020 10:00:00 16,7 11,7 17,8 25 14 40 21 SW 1009,8 71 0,0
30.06.2020 09:00:00 16,1 11,6 16,8 22 12 40 21 SW 1010,0 44 0,0
30.06.2020 08:00:00 14,7 11,0 15,0 22 12 36 19 SW 1009,9 44 0,0
30.06.2020 07:00:00 14,1 10,8 13,9 22 12 36 19 SSW 1009,8 31 0,0
30.06.2020 06:00:00 13,4 10,4 13,0 22 12 36 19 SW 1010,0 33 0,0
30.06.2020 05:00:00 13,5 10,0 12,8 18 10 29 16 SW 1009,8 36 0,0
30.06.2020 04:00:00 13,0 9,6 12,5 22 12 32 18 SW 1010,1 36 0,0
30.06.2020 03:00:00 12,8 9,1 12,2 22 12 32 18 SW 1010,3 37 0,0
30.06.2020 02:00:00 13,2 8,8 12,7 22 12 43 23 SW 1010,8 34 0,0
30.06.2020 01:00:00 13,9 8,5 13,3 22 12 36 19 SW 1010,9 38 0,0
30.06.2020 00:00:00 14,4 8,1 14,1 25 14 40 21 SW 1011,1 40 0,0
29.06.2020 23:00:00 14,9 7,4 14,5 25 14 54 29 WSW 1011,3 61 0,0
29.06.2020 22:00:00 16,0 6,5 15,6 29 16 54 29 WSW 1011,2 68 0,0
29.06.2020 21:00:00 17,2 6,5 17,1 32 18 58 31 WSW 1011,5 50 0,0
29.06.2020 20:00:00 17,5 6,8 17,2 36 19 61 33 WSW 1011,4 48 0,0
29.06.2020 19:00:00 18,1 5,8 18,3 40 21 58 31 WSW 1011,3 49 0,0
29.06.2020 18:00:00 18,5 6,0 19,4 40 21 61 33 WSW 1011,6 34 0,0
29.06.2020 17:00:00 19,1 6,3 20,1 32 18 61 33 WSW 1011,5 39 0,0
29.06.2020 16:00:00 18,9 6,7 20,1 36 19 54 29 SW 1011,6 39 0,0
29.06.2020 15:00:00 19,0 7,0 18,9 32 18 50 27 WSW 1011,8 41 0,0
29.06.2020 14:00:00 18,6 7,0 19,3 32 18 47 25 WSW 1012,2 62 0,0
29.06.2020 13:00:00 18,5 7,4 20,1 32 18 47 25 SW 1012,1 51 0,0
29.06.2020 12:00:00 17,2 8,4 18,0 25 14 40 21 WSW 1012,2 54 0,0
29.06.2020 11:00:00 17,8 8,0 18,5 29 16 47 25 WSW 1012,1 55 0,0
29.06.2020 10:00:00 16,9 8,4 18,2 29 16 43 23 SW 1011,9 52 0,0
29.06.2020 09:00:00 16,1 9,6 16,4 25 14 43 23 WSW 1011,8 34 0,0
29.06.2020 08:00:00 14,8 10,1 15,5 22 12 36 19 SW 1011,8 29 0,0
29.06.2020 07:00:00 13,2 10,1 12,6 18 10 36 19 SW 1011,9 26 0,0
29.06.2020 06:00:00 13,3 10,0 12,8 18 10 32 18 SW 1011,8 27 0,0
29.06.2020 05:00:00 13,5 9,6 13,1 18 10 32 18 SW 1012,0 30 0,0
29.06.2020 04:00:00 13,9 9,3 13,3 22 12 29 16 SW 1012,0 45 0,0
29.06.2020 03:00:00 13,4 8,8 12,9 18 10 32 18 SW 1012,2 51 0,0
29.06.2020 02:00:00 13,7 8,6 12,9 18 10 29 16 SW 1012,6 62 0,0
29.06.2020 01:00:00 14,6 8,8 13,9 18 10 36 19 SW 1012,6 67 0,0
29.06.2020 00:00:00 15,3 8,7 14,7 18 10 32 18 SW 1012,6 64 0,0
28.06.2020 23:00:00 15,9 7,7 14,9 14 8 29 16 SW 1012,9 59 0,0
28.06.2020 22:00:00 17,1 7,2 16,3 18 10 43 23 WSW 1013,0 75 0,0
28.06.2020 21:00:00 18,9 7,2 18,8 25 14 43 23 WSW 1013,0 73 0,0
28.06.2020 20:00:00 20,2 6,5 20,8 25 14 47 25 WSW 1012,9 64 0,0
28.06.2020 19:00:00 21,1 5,9 22,5 32 18 47 25 WSW 1012,8 66 0,0
28.06.2020 18:00:00 21,7 6,3 23,7 29 16 54 29 WSW 1013,1 54 0,0
28.06.2020 17:00:00 22,3 6,2 24,2 29 16 50 27 WSW 1013,1 75 0,0
28.06.2020 16:00:00 21,8 8,3 22,4 32 18 50 27 WSW 1013,2 56 0,0
28.06.2020 15:00:00 21,4 8,7 22,5 25 14 47 25 WSW 1013,0 53 0,0
28.06.2020 14:00:00 20,2 9,6 21,7 29 16 47 25 WSW 1013,2 45 0,0
28.06.2020 13:00:00 19,5 8,9 21,7 25 14 47 25 W 1013,1 63 0,0
28.06.2020 12:00:00 19,8 9,7 20,5 29 16 47 25 WSW 1013,2 44 0,0
28.06.2020 11:00:00 18,0 8,8 20,0 29 16 47 25 WSW 1013,1 60 0,0
28.06.2020 10:00:00 17,6 11,0 18,0 29 16 43 23 SW 1012,7 63 0,0
28.06.2020 09:00:00 16,1 11,2 16,3 25 14 43 23 WSW 1012,2 45 0,0
28.06.2020 08:00:00 15,6 10,9 15,5 25 14 36 19 SW 1011,4 35 0,0
28.06.2020 07:00:00 15,3 11,2 14,9 22 12 36 19 SW 1011,0 37 0,0
28.06.2020 06:00:00 15,5 11,2 15,1 22 12 32 18 SW 1010,5 48 0,0
28.06.2020 05:00:00 15,6 11,6 15,1 22 12 40 21 SSW 1010,4 60 0,0
28.06.2020 04:00:00 15,9 10,9 15,5 25 14 40 21 WSW 1010,2 36 0,0
28.06.2020 03:00:00 16,6 11,2 16,3 18 10 29 16 SW 1009,8 60 0,0
28.06.2020 02:00:00 16,8 12,5 16,1 14 8 29 16 SSW 1009,8 71 0,0
28.06.2020 01:00:00 17,1 12,6 16,6 14 8 25 14 SW 1009,9 50 0,0
28.06.2020 00:00:00 17,6 12,9 17,2 14 8 25 14 WSW 1009,7 75 0,0
27.06.2020 23:00:00 17,8 13,0 17,3 14 8 29 16 SW 1009,5 74 0,0
27.06.2020 22:00:00 17,7 13,5 17,3 11 6 32 18 SW 1009,0 74 0,0
27.06.2020 21:00:00 19,1 14,5 18,2 14 8 25 14 WSW 1008,9 67 0,0

tt = temperature
td = dewpoint
tt 5cm = temperature 5cm
ff = wind speed
fx = gusts
dd = wind direction
ppp = reduced air pressure
vv = visibility
rr = precipitation

Next stations